Location: Unspecified
(44.4377°N, 88.0525°W)
Time: 17:56:11
(UTC-05:00)

ISS - Visible Passes

Search period start: 18 September 2018 00:00
Search period end: 28 September 2018 00:00
Orbit: 402 x 408 km, 51.6° (Epoch: 19 September)

Date Brightness Start Highest point End Pass type
(mag) Time Alt. Az. Time Alt. Az. Time Alt. Az.
18 Sep -1.7 04:50:16 16° SSE 04:50:16 16° SSE 04:51:11 10° SSE visible
21 Sep -2.7 20:26:24 10° SSW 20:28:32 29° S 20:28:32 29° S visible
22 Sep -2.3 19:35:02 10° S 19:37:35 21° SE 19:39:18 14° E visible
22 Sep -1.6 21:10:33 10° WSW 21:12:00 23° W 21:12:00 23° W visible
23 Sep -4.0 20:18:27 10° SW 20:21:45 82° SSE 20:22:32 49° ENE visible
24 Sep -3.4 19:26:35 10° SW 19:29:44 46° SE 19:32:52 10° ENE visible
24 Sep -1.9 21:03:14 10° W 21:05:33 31° NW 21:05:33 31° NW visible
25 Sep -3.1 20:10:55 10° WSW 20:14:08 50° NNW 20:15:45 25° NE visible
26 Sep -3.7 19:18:42 10° WSW 19:22:00 82° NNW 19:25:18 10° ENE visible
26 Sep -1.8 20:56:01 10° WNW 20:58:29 25° NNW 20:58:29 25° NNW visible
27 Sep -2.3 20:03:34 10° W 20:06:34 32° NNW 20:08:29 18° NE visible
27 Sep -0.2 21:41:02 10° NW 21:41:08 11° NW 21:41:08 11° NW visible
